strmgageid,date_time,avg_discharge,stddev_discharge,min_discharge,max_discharge,n_discharge,tdaily_discharge,avg_temp,stddev_temp,min_temp,max_temp,n_temp,avg_cond,stddev_cond,min_cond,max_cond,n_cond
common_c1,11/30/93,7.1,0.6,5.41,7.84,34,217314,,,,,0,,,,,0
common_c1,12/1/93,7.3,1.2,5.97,9.97,96,631854,,,,,0,,,,,0
common_c1,12/2/93,7.9,1,6.68,10,96,683964,,,,,0,,,,,0
common_c1,12/3/93,8.3,0.9,6.51,10.11,96,714231,,,,,0,,,,,0
common_c1,12/4/93,6.6,0.8,3.2,8.41,96,566757,,,,,0,,,,,0
common_c1,12/5/93,5.7,0.8,4.25,7.65,96,496386,,,,,0,,,,,0
common_c1,12/6/93,6.7,2.1,3.28,10.22,96,575658,,,,,0,,,,,0
common_c1,12/7/93,10.1,4.9,5.75,20.95,96,871857,,,,,0,,,,,0
common_c1,12/8/93,6.7,0.6,4.84,7.62,96,581625,,,,,0,,,,,0
common_c1,12/9/93,7.8,3.9,3.45,17.64,96,672282,,,,,0,,,,,0
common_c1,12/10/93,16,10,5.8,34.24,96,1385136,,,,,0,,,,,0
common_c1,12/11/93,18.8,11,7.93,41.68,96,1623798,,,,,0,,,,,0
common_c1,12/12/93,14.6,5.7,8.01,23.64,96,1263960,,,,,0,,,,,0
common_c1,12/13/93,7,0.8,5.1,8.3,96,602910,,,,,0,,,,,0
common_c1,12/14/93,10,6.5,3.57,25.12,96,859716,,,,,0,,,,,0
common_c1,12/15/93,28.1,20.6,7.39,66.71,96,2428146,,,,,0,,,,,0
common_c1,12/16/93,40.9,20.6,8.5,79.12,96,3533643,,,,,0,,,,,0
common_c1,12/17/93,46.7,20.7,10.59,82.71,96,4037832,,,,,0,,,,,0
common_c1,12/18/93,33.9,14.4,7.96,56.52,96,2932524,,,,,0,,,,,0
common_c1,12/19/93,17.5,11.8,5.1,39.81,96,1508661,,,,,0,,,,,0
common_c1,12/20/93,10.3,4.7,7.02,25.12,96,890460,,,,,0,,,,,0
common_c1,12/21/93,4.7,1.4,1.7,6.99,96,403137,,,,,0,,,,,0
common_c1,12/22/93,2.2,0.6,1.27,3.31,96,185850,,,,,0,,,,,0
common_c1,12/23/93,4.7,3.9,0,12.66,70,298296,,,,,0,,,,,0
common_c1,12/24/93,20.4,17.9,5.1,56.95,96,1759554,,,,,0,,,,,0
common_c1,12/25/93,22.6,19.4,6.17,61.67,96,1951344,,,,,0,,,,,0
common_c1,12/26/93,22.2,19.2,6.23,60.66,96,1916091,,,,,0,,,,,0
common_c1,12/27/93,22.3,19.6,6,63.09,96,1929591,,,,,0,,,,,0
common_c1,12/28/93,6.4,1.7,3.65,11.41,96,553896,,,,,0,,,,,0
common_c1,12/29/93,5.6,2.9,1.73,12.88,96,481194,,,,,0,,,,,0
common_c1,12/30/93,26.3,24.2,4.81,72.55,96,2275839,,,,,0,,,,,0
common_c1,12/31/93,28.1,24.7,6.17,74.93,96,2430198,,,,,0,,,,,0
common_c1,1/1/94,36.3,30.1,6.31,91.29,96,3138327,,,,,0,,,,,0
common_c1,1/2/94,47.5,36.1,7.5,109.9,96,4102137,,,,,0,,,,,0
common_c1,1/3/94,30.1,21.2,7.31,62.3,96,2597985,,,,,0,,,,,0
common_c1,1/4/94,40.2,33.6,6.29,95.85,96,3474171,,,,,0,,,,,0
common_c1,1/5/94,46.3,33.5,8.18,97.04,96,4002201,,,,,0,,,,,0
common_c1,1/6/94,39.7,11.1,26.99,62.5,96,3429171,,,,,0,,,,,0
common_c1,1/7/94,47,31.2,11.84,98.03,96,4057344,,,,,0,,,,,0
common_c1,1/8/94,45.9,27.4,12.03,89.48,96,3962043,,,,,0,,,,,0
common_c1,1/9/94,47.8,24.8,12.03,87.3,96,4130298,,,,,0,,,,,0
common_c1,1/10/94,63.6,32,24.07,111.29,96,5499072,,,,,0,,,,,0
common_c1,1/11/94,59.8,17.6,37.12,89.28,96,5162481,,,,,0,,,,,0
common_c1,1/12/94,55.4,27,21.15,98.03,96,4789179,,,,,0,,,,,0
common_c1,1/13/94,61.1,24.1,27.18,100.81,96,5282136,,,,,0,,,,,0
common_c1,1/14/94,35.8,12.1,12.46,64.31,96,3095361,,,,,0,,,,,0
common_c1,1/15/94,26.3,23.3,6.68,65.92,96,2276280,,,,,0,,,,,0
common_c1,1/16/94,20.7,11.8,4.62,43.13,96,1790208,,,,,0,,,,,0
common_c1,1/17/94,15.7,18.4,1.53,63.09,96,1353474,,,,,0,,,,,0
common_c1,1/18/94,24.1,28.1,0.93,94.86,96,2081700,,,,,0,,,,,0
common_c1,1/19/94,19.1,21.6,1.56,64.31,96,1648089,,,,,0,,,,,0
common_c1,1/20/94,3.2,2,0.25,7.62,96,275211,,,,,0,,,,,0
common_c1,1/21/94,14.8,19.7,0.2,63.91,96,1279962,,,,,0,,,,,0
common_c1,1/22/94,16.3,20.9,0.51,67.11,96,1411974,,,,,0,,,,,0
common_c1,1/23/94,16.2,20.2,0,66.12,96,1396278,,,,,0,,,,,0
common_c1,1/24/94,4.2,3.9,0,27.38,96,359289,,,,,0,,,,,0
common_c1,1/25/94,10.2,14.1,0,56.95,96,882378,,,,,0,,,,,0
common_c1,1/26/94,3.6,5.2,0,27.81,96,308448,,,,,0,,,,,0
common_c1,1/27/94,14.6,22.2,0,70.93,96,1264779,,,,,0,,,,,0
common_c1,1/28/94,6.6,9.6,0.03,58.79,96,566181,,,,,0,,,,,0
common_c1,1/29/94,1,1.1,0,4.53,43,37530,,,,,0,,,,,0
common_c1,12/11/94,2.2,0.7,1.22,3.82,31,61731,,,,,0,,,,,0
common_c1,12/12/94,2.9,2.6,0.82,13.14,96,254457,,,,,0,,,,,0
common_c1,12/13/94,3.6,2.6,1.64,15.29,96,308169,,,,,0,,,,,0
common_c1,12/14/94,1.2,0.3,0.57,2.1,96,103221,,,,,0,,,,,0
common_c1,12/15/94,0.6,0.4,0,1.7,96,53361,,,,,0,,,,,0
common_c1,12/16/94,0.4,0.3,0,0.96,96,36045,,,,,0,,,,,0
common_c1,12/17/94,0,0.1,0,0.51,56,765,,,,,0,,,,,0
common_c1,12/18/94,,,,,0,,,,,,0,,,,,0
common_c1,12/19/94,10.1,4.2,5.1,18.72,10,91143,,,,,0,,,,,0
common_c1,12/20/94,13.6,12.3,0.59,46.89,96,1177587,,,,,0,,,,,0
common_c1,12/21/94,6.7,3.2,2.46,19.65,96,579483,,,,,0,,,,,0
common_c1,12/22/94,2,1.3,0.74,7.7,96,170478,,,,,0,,,,,0
common_c1,12/23/94,1.2,0.8,0.65,4.39,96,99414,,,,,0,,,,,0
common_c1,12/24/94,4.5,3,1.3,14.1,96,384768,,,,,0,,,,,0
common_c1,12/25/94,8.3,4.9,3,30.81,96,720630,,,,,0,,,,,0
common_c1,12/26/94,9.8,4.7,3.45,23.39,96,849456,,,,,0,,,,,0
common_c1,12/27/94,23.3,17.3,7.08,108.26,96,2011914,,,,,0,,,,,0
common_c1,12/28/94,13.3,9.4,3.06,50.91,96,1146591,,,,,0,,,,,0
common_c1,12/29/94,4.2,1.8,1.5,7.65,96,359577,,,,,0,,,,,0
common_c1,12/30/94,18,13.6,4.67,54.37,96,1559241,,,,,0,,,,,0
common_c1,12/31/94,6.6,3.9,2.72,20.19,96,569934,,,,,0,,,,,0
common_c1,1/1/95,22.5,26.9,1.59,81.64,96,1943064,,,,,0,,,,,0
common_c1,1/2/95,24.8,16.9,8.78,57.96,96,2146185,,,,,0,,,,,0
common_c1,1/3/95,15.9,15.2,2.94,46.89,96,1376388,,,,,0,,,,,0
common_c1,1/4/95,3.9,3.7,1.95,15.89,96,334242,,,,,0,,,,,0
common_c1,1/5/95,5.1,4.6,2.04,16.96,96,440073,,,,,0,,,,,0
common_c1,1/6/95,5.6,3,2.35,15.18,96,481509,,,,,0,,,,,0
common_c1,1/7/95,9.1,11.8,2.35,39.5,96,785205,,,,,0,,,,,0
common_c1,1/8/95,23.2,19.5,7.39,65.04,96,2000646,,,,,0,,,,,0
common_c1,1/9/95,27.4,21.7,7.45,72.01,96,2369565,,,,,0,,,,,0
common_c1,1/10/95,29.4,23.5,8.18,75.01,96,2541438,,,,,0,,,,,0
common_c1,1/11/95,22.6,14,7.9,57.68,96,1948545,,,,,0,,,,,0
common_c1,1/12/95,8.7,7.5,1.95,44.74,96,751167,,,,,0,,,,,0
common_c1,1/13/95,1.9,0.4,1.73,4.11,96,161937,,,,,0,,,,,0
common_c1,1/14/95,3.9,4.3,1.53,16.71,96,336573,,,,,0,,,,,0
common_c1,1/15/95,5.8,6,1.39,23.25,96,502785,,,,,0,,,,,0
common_c1,1/16/95,6.2,6.3,1.16,21.75,96,535077,,,,,0,,,,,0
common_c1,1/17/95,15,18.3,1.3,53.55,96,1299744,,,,,0,,,,,0
common_c1,1/18/95,12,11.5,2.01,43.81,96,1033659,,,,,0,,,,,0
common_c1,1/19/95,3.2,4.5,0.85,24.32,96,277011,,,,,0,,,,,0
common_c1,1/20/95,5.3,7.9,0.76,30.61,96,456066,,,,,0,,,,,0
common_c1,1/21/95,16.4,21.7,0.74,63.8,96,1419768,,,,,0,,,,,0
common_c1,1/22/95,15.3,17.4,1.08,53.55,96,1318770,,,,,0,,,,,0
common_c1,1/23/95,15.8,17.9,1.53,55.19,96,1366290,,,,,0,,,,,0
common_c1,1/24/95,10.1,13,1.1,50.4,96,869220,,,,,0,,,,,0
common_c1,1/25/95,18.9,23.8,1.3,71.36,96,1635156,,,,,0,,,,,0
common_c1,1/26/95,6.1,5.8,1.39,26.93,96,524556,,,,,0,,,,,0
common_c1,1/27/95,21.5,27.9,0.59,81.3,96,1858986,,,,,0,,,,,0
common_c1,1/28/95,3.4,4.8,0.57,20.05,96,290511,,,,,0,,,,,0
common_c1,1/29/95,12.9,19,0.57,54.62,96,1114290,,,,,0,,,,,0
common_c1,1/30/95,19.9,24.4,0.57,72.66,96,1717605,,,,,0,,,,,0
common_c1,1/31/95,16.3,17.9,1.16,55.44,96,1406457,,,,,0,,,,,0
common_c1,2/1/95,14.7,19.6,0.48,55.73,96,1271664,,,,,0,,,,,0
common_c1,2/2/95,23.8,28,0.62,96.08,96,2055906,,,,,0,,,,,0
common_c1,2/3/95,20.6,22.6,1.36,69.4,96,1782234,,,,,0,,,,,0
common_c1,2/4/95,8.4,10.1,0.68,46.41,96,724383,,,,,0,,,,,0
common_c1,2/5/95,10.4,18.4,0.62,91.35,96,896211,,,,,0,,,,,0
common_c1,2/6/95,46.9,29,1.47,98.91,96,4055508,,,,,0,,,,,0
common_c1,2/7/95,20.6,18.5,0.88,70.4,96,1776555,,,,,0,,,,,0
common_c1,2/8/95,16,18.5,0.62,63.52,96,1380366,,,,,0,,,,,0
common_c1,2/9/95,5.7,8.4,0.59,32.71,96,490032,,,,,0,,,,,0
common_c1,2/10/95,5.7,9.4,0.57,46.41,96,489015,,,,,0,,,,,0
common_c1,2/11/95,6.4,12.3,0.62,46.89,96,551205,,,,,0,,,,,0
common_c1,2/12/95,3,4.6,0.59,21.04,96,261873,,,,,0,,,,,0
common_c1,2/13/95,1.2,1.8,0.57,9.51,96,105939,,,,,0,,,,,0
common_c1,2/14/95,0.6,,0.57,0.57,1,513,,,,,0,,,,,0
common_c1,12/1/95,43.3,15.4,21.04,84.92,35,1363221,,,,,0,,,,,0
common_c1,12/2/95,31.6,11.7,17.08,71.05,96,2727801,,,,,0,,,,,0
common_c1,12/3/95,33.4,9.2,19.65,56.01,96,2884455,,,,,0,,,,,0
common_c1,12/4/95,32.8,14.7,13.68,81.27,96,2833668,,,,,0,,,,,0
common_c1,12/5/95,23.7,6.1,15.89,58.81,95,2022867,,,,,0,,,,,0
common_c1,12/6/95,23.7,9.5,13.68,81.27,96,2047518,,,,,0,,,,,0
common_c1,12/7/95,23.1,10.5,3.94,56.01,96,2000043,,,,,0,,,,,0
common_c1,12/8/95,7.2,2.8,3.65,15.89,96,619389,,,,,0,,,,,0
common_c1,12/9/95,24.7,20.4,3.11,71.05,96,2131416,,,,,0,,,,,0
common_c1,12/10/95,24.9,6.5,14.75,38.85,96,2149155,,,,,0,,,,,0
common_c1,12/11/95,18.8,7.4,11.67,50.66,96,1627560,,,,,0,,,,,0
common_c1,12/12/95,14.1,2.8,9.23,21.04,96,1215864,,,,,0,,,,,0
common_c1,12/13/95,30.6,18.6,12.63,127.85,96,2641338,,,,,0,,,,,0
common_c1,12/14/95,23.9,5.6,14.75,36.7,96,2065653,,,,,0,,,,,0
common_c1,12/15/95,38.2,23.5,14.75,113.64,96,3303126,,,,,0,,,,,0
common_c1,12/16/95,24.2,12.8,9.97,67.82,96,2093067,,,,,0,,,,,0
common_c1,12/17/95,11.1,8.1,2.18,29,96,958527,,,,,0,,,,,0
common_c1,12/18/95,4,2.9,2.18,11.67,96,344601,,,,,0,,,,,0
common_c1,12/19/95,15.4,15.1,4.22,53.29,96,1329552,,,,,0,,,,,0
common_c1,12/20/95,28.9,27,8.52,92.51,96,2494872,,,,,0,,,,,0
common_c1,12/21/95,33.2,30.6,7.19,138.02,96,2869245,,,,,0,,,,,0
common_c1,12/22/95,15.3,8.3,5.49,36.7,96,1322811,,,,,0,,,,,0
common_c1,12/23/95,43.5,40.8,7.19,132.86,96,3762486,,,,,0,,,,,0
common_c1,12/24/95,49.3,41,9.23,122.98,96,4259124,,,,,0,,,,,0
common_c1,12/25/95,34.1,20.1,10.76,74.33,96,2949183,,,,,0,,,,,0
common_c1,12/26/95,15.6,5.5,7.19,29,96,1346301,,,,,0,,,,,0
common_c1,12/27/95,29.2,28,2.63,100.55,96,2519487,,,,,0,,,,,0
common_c1,12/28/95,34,34,2.89,118.22,96,2933883,,,,,0,,,,,0
common_c1,12/29/95,20.7,18.6,2.89,74.33,96,1792053,,,,,0,,,,,0
common_c1,12/30/95,12.5,12.7,2.89,45.68,95,1072557,,,,,0,,,,,0
common_c1,12/31/95,29.6,33.4,2.89,127.85,96,2559789,,,,,0,,,,,0
common_c1,1/1/96,3.7,1.8,2.63,10.76,95,320274,,,,,0,,,,,0
common_c1,1/2/96,2.7,0.1,2.63,2.89,96,235422,,,,,0,,,,,0
common_c1,1/3/96,3.3,1.2,2.89,7.19,96,289395,,,,,0,,,,,0
common_c1,1/4/96,3,0.1,2.89,3.11,96,256230,,,,,0,,,,,0
common_c1,1/5/96,3.2,0.7,2.89,5.49,95,272286,,,,,0,,,,,0
common_c1,1/6/96,4.5,3.1,2.63,12.63,96,387117,,,,,0,,,,,0
common_c1,1/7/96,3.5,1.2,2.89,6.6,94,299808,,,,,0,,,,,0
common_c1,1/8/96,12.3,13.7,2.89,43.33,96,1064286,,,,,0,,,,,0
common_c1,1/9/96,3.7,0.9,2.89,5.49,90,300852,,,,,0,,,,,0
common_c1,1/10/96,18,21.7,2.89,64.73,96,1552644,,,,,0,,,,,0
common_c1,1/11/96,46.5,59.4,3.11,269.89,96,4019634,,,,,0,,,,,0
common_c1,1/12/96,9.2,6.7,3.11,41.06,96,793125,,,,,0,,,,,0
common_c1,1/13/96,3.2,1.2,2.18,6.6,96,276786,,,,,0,,,,,0
common_c1,1/14/96,11.3,10.2,2.18,38.85,96,975042,,,,,0,,,,,0
common_c1,1/15/96,12.5,11.5,2.41,38.85,96,1076643,,,,,0,,,,,0
common_c1,1/16/96,29.3,31.6,2.41,96.48,96,2532096,,,,,0,,,,,0
common_c1,1/17/96,29.5,27.6,4.22,100.55,96,2551347,,,,,0,,,,,0
common_c1,1/18/96,24.6,25.1,2.89,81.3,96,2123883,,,,,0,,,,,0
common_c1,1/19/96,22,20.7,2.89,71.05,96,1899009,,,,,0,,,,,0
common_c1,1/20/96,16.2,16.3,2.89,53.29,96,1401093,,,,,0,,,,,0
common_c1,1/21/96,6.4,6.1,2.63,22.48,96,549855,,,,,0,,,,,0
common_c1,1/22/96,11.8,14.1,2.63,45.68,96,1017522,,,,,0,,,,,0
common_c1,1/23/96,15.9,18.3,2.41,53.29,96,1375506,,,,,0,,,,,0
common_c1,1/24/96,5.7,5,2.41,27.27,96,494235,,,,,0,,,,,0
common_c1,1/25/96,32,40.2,2.41,113.64,96,2763315,,,,,0,,,,,0
common_c1,1/26/96,27.4,26.5,2.41,81.3,96,2366325,,,,,0,,,,,0
common_c1,1/27/96,15.7,15.7,2.18,56.01,96,1356030,,,,,0,,,,,0
common_c1,1/28/96,16.1,17.9,2.63,58.81,96,1395063,,,,,0,,,,,0
common_c1,1/29/96,12,10.2,2.18,41.06,96,1034379,,,,,0,,,,,0
common_c1,1/30/96,11.2,11.6,2.18,43.33,96,964170,,,,,0,,,,,0
common_c1,1/31/96,32.6,34.4,2.18,104.77,96,2816973,,,,,0,,,,,0
common_c1,2/1/96,24.4,18.4,4.22,81.3,96,2104029,,,,,0,,,,,0
common_c1,2/2/96,28.2,27.7,3.94,104.77,96,2435013,,,,,0,,,,,0
common_c1,2/3/96,31.5,25,5.49,84.92,96,2720916,,,,,0,,,,,0
common_c1,2/4/96,37.2,29.7,2.89,143.28,96,3216420,,,,,0,,,,,0
common_c1,2/5/96,15.9,10.4,3.65,45.68,96,1369818,,,,,0,,,,,0
common_c1,2/6/96,29.7,32.5,2.18,109.13,96,2569725,,,,,0,,,,,0
common_c1,2/7/96,42.7,36.5,3.4,165.8,96,3688155,,,,,0,,,,,0
common_c1,2/8/96,9,10.2,2.18,45.68,96,779400,,,,,0,,,,,0
common_c1,2/9/96,14.9,18.2,1.98,53.29,96,1287945,,,,,0,,,,,0
common_c1,2/10/96,24.6,32.2,1.98,204.05,96,2122875,,,,,0,,,,,0
common_c1,2/11/96,13.8,14.1,2.18,43.33,96,1188792,,,,,0,,,,,0
common_c1,2/12/96,6.8,7.5,2.18,32.71,96,590220,,,,,0,,,,,0
common_c1,2/13/96,8.9,12.4,2.18,50.66,96,770220,,,,,0,,,,,0
common_c1,2/14/96,3.9,2.3,2.18,9.23,54,190566,,,,,0,,,,,0
common_c1,2/15/96,15,20.3,2.41,71.05,96,1296522,,,,,0,,,,,0
common_c1,2/16/96,5.6,9.1,2.41,50.66,96,487575,,,,,0,,,,,0
common_c1,2/17/96,12.2,18.4,2.41,67.82,96,1056186,,,,,0,,,,,0
common_c1,2/18/96,16,23.7,2.18,113.64,96,1378953,,,,,0,,,,,0
common_c1,2/19/96,4,2.3,2.18,9.97,96,348633,,,,,0,,,,,0
common_c1,2/20/96,2.6,0,2.63,2.63,3,7101,,,,,0,,,,,0
common_c1,11/17/96,20.7,7.9,5.01,53.29,85,1585584,,,,,0,,,,,0
common_c1,11/18/96,23.9,28.5,2.89,143.28,96,2068515,,,,,0,,,,,0
common_c1,11/19/96,26.5,14.4,7.84,61.73,96,2290338,,,,,0,,,,,0
common_c1,11/20/96,17.1,11.3,6.03,56.01,96,1476873,,,,,0,,,,,0
common_c1,11/21/96,16.6,22.3,3.94,84.92,96,1430379,,,,,0,,,,,0
common_c1,11/22/96,7.9,2.5,4.53,19.65,96,678600,,,,,0,,,,,0
common_c1,11/23/96,13.9,6.5,6.03,32.71,96,1203687,,,,,0,,,,,0
common_c1,11/24/96,26.8,10,13.68,53.29,96,2316600,,,,,0,,,,,0
common_c1,11/25/96,11.4,12,3.4,61.73,79,812835,,,,,0,,,,,0
common_c1,11/26/96,4.7,0.6,3.65,6.6,27,113958,,,,,0,,,,,0
common_c1,12/1/96,16.8,7.5,4.22,30.81,49,739071,,,,,0,,,,,0
common_c1,12/2/96,7.4,5,3.11,22.48,96,637434,,,,,0,,,,,0
common_c1,12/3/96,5.4,3.5,2.89,14.75,73,354411,,,,,0,,,,,0
common_c1,12/4/96,16.4,17.3,3.11,64.73,96,1418724,,,,,0,,,,,0
common_c1,12/5/96,31.4,24.9,7.19,84.92,96,2715057,,,,,0,,,,,0
common_c1,12/6/96,7.3,6.2,3.11,43.33,96,630468,,,,,0,,,,,0
common_c1,12/7/96,12.9,15.5,2.89,50.66,96,1116864,,,,,0,,,,,0
common_c1,12/8/96,14.7,12.6,3.11,45.68,96,1267911,,,,,0,,,,,0
common_c1,12/9/96,26.2,23.5,4.22,77.76,96,2265939,,,,,0,,,,,0
common_c1,12/10/96,27.7,19.5,6.6,81.27,96,2395251,,,,,0,,,,,0
common_c1,12/11/96,34.6,28,7.19,104.77,96,2989404,,,,,0,,,,,0
common_c1,12/12/96,4.7,3.8,2.41,15.89,96,406170,,,,,0,,,,,0
common_c1,12/13/96,2.6,0.3,2.41,4.53,96,220797,,,,,0,,,,,0
common_c1,12/14/96,33.5,36.3,2.41,104.77,96,2895840,,,,,0,,,,,0
common_c1,12/15/96,36.2,34.7,4.53,109.13,96,3131019,,,,,0,,,,,0
common_c1,12/16/96,38,35.8,4.53,109.13,96,3284955,,,,,0,,,,,0
common_c1,12/17/96,20.7,18.1,4.22,64.73,96,1791495,,,,,0,,,,,0
common_c1,12/18/96,33.7,35.2,3.65,127.85,96,2907567,,,,,0,,,,,0
common_c1,12/19/96,17.6,20.8,2.41,138.02,96,1517238,,,,,0,,,,,0
common_c1,12/20/96,11,9.2,2.18,43.33,96,947142,,,,,0,,,,,0
common_c1,12/21/96,5.9,5.3,2.18,24.01,96,511497,,,,,0,,,,,0
common_c1,12/22/96,2.7,1,1.98,6.6,96,236493,,,,,0,,,,,0
common_c1,12/23/96,20.3,24.5,1.98,74.33,96,1752570,,,,,0,,,,,0
common_c1,12/24/96,31.2,33.3,1.98,96.48,96,2699460,,,,,0,,,,,0
common_c1,12/25/96,42,43.4,2.18,127.85,96,3628566,,,,,0,,,,,0
common_c1,12/26/96,24.9,28.8,2.41,100.55,96,2147679,,,,,0,,,,,0
common_c1,12/27/96,8.3,8.5,2.18,34.66,96,715005,,,,,0,,,,,0
common_c1,12/28/96,3,1.4,1.81,7.84,96,259614,,,,,0,,,,,0
common_c1,12/29/96,21.9,26.6,1.81,96.48,96,1892430,,,,,0,,,,,0
common_c1,12/30/96,27.9,31.4,1.98,109.13,96,2412324,,,,,0,,,,,0
common_c1,12/31/96,37.5,38.7,1.98,138.02,96,3237894,,,,,0,,,,,0
common_c1,1/1/97,34.5,34,1.81,100.55,96,2977560,,,,,0,,,,,0
common_c1,1/2/97,25.9,24.1,2.89,113.61,96,2240721,,,,,0,,,,,0
common_c1,1/3/97,31.5,37.1,2.63,197.28,96,2725083,,,,,0,,,,,0
common_c1,1/4/97,45.4,43.2,5.49,184.23,96,3919743,,,,,0,,,,,0
common_c1,1/5/97,35.5,39.8,2.89,197.28,96,3070647,,,,,0,,,,,0
common_c1,1/6/97,46.7,51.5,3.4,177.94,96,4032126,,,,,0,,,,,0
common_c1,1/7/97,52.5,48.4,3.94,165.8,96,4531779,,,,,0,,,,,0
common_c1,1/8/97,11.6,12.3,1.81,41.06,96,1001394,,,,,0,,,,,0
common_c1,1/9/97,1.9,0.1,1.81,2.18,96,161415,,,,,0,,,,,0
common_c1,1/10/97,2.2,1,1.81,7.19,96,190350,,,,,0,,,,,0
common_c1,1/11/97,14.6,20.3,1.81,81.27,96,1259478,,,,,0,,,,,0
common_c1,1/12/97,2.2,2.2,1.64,19.65,96,194382,,,,,0,,,,,0
common_c1,1/13/97,9.2,9.3,1.64,34.66,96,795384,,,,,0,,,,,0
common_c1,1/14/97,34.2,39,1.64,148.69,96,2957148,,,,,0,,,,,0
common_c1,1/15/97,37.2,40.6,3.4,184.23,96,3214080,,,,,0,,,,,0
common_c1,1/16/97,36.8,40.1,3.65,184.23,96,3183831,,,,,0,,,,,0
common_c1,1/17/97,33.5,36.7,1.64,154.27,96,2897577,,,,,0,,,,,0
common_c1,1/18/97,39.8,48.9,1.64,232.09,96,3441591,,,,,0,,,,,0
common_c1,1/19/97,3.6,2.5,1.64,9.97,96,313461,,,,,0,,,,,0
common_c1,1/20/97,8.4,10.1,1.64,32.71,96,726282,,,,,0,,,,,0
common_c1,1/21/97,14,13.1,1.64,56.01,74,929295,,,,,0,,,,,0
common_c1,1/22/97,33.2,25.3,1.64,88.66,67,2000970,,,,,0,,,,,0
common_c1,1/23/97,12.5,17.6,1.64,100.55,96,1082205,,,,,0,,,,,0
common_c1,1/24/97,2.2,1.5,1.64,7.84,41,81162,,,,,0,,,,,0
common_c1,11/17/97,0.9,1.7,0,14.74,95,76122,,,,,0,,,,,0
common_c1,11/18/97,2.8,2.7,0.91,10.76,96,240813,,,,,0,,,,,0
common_c1,11/19/97,1.9,1.3,0.91,7.2,85,147042,,,,,0,,,,,0
common_c1,11/20/97,1.4,0.8,0.79,3.12,19,23967,,,,,0,,,,,0
common_c1,11/21/97,1.7,1.3,0.79,5.5,95,142434,,,,,0,,,,,0
common_c1,11/22/97,3.9,4,0.79,14.74,96,339138,,,,,0,,,,,0
common_c1,11/23/97,35.6,32.8,6.6,137.97,96,3077127,,,,,0,,,,,0
common_c1,11/24/97,19.3,15,3.38,77.74,96,1671471,,,,,0,,,,,0
common_c1,11/25/97,15.5,9.2,3.65,50.65,96,1337976,,,,,0,,,,,0
common_c1,11/26/97,36.3,18.6,9.22,96.46,96,3137319,,,,,0,,,,,0
common_c1,11/27/97,24.3,17.4,5,96.46,96,2101410,,,,,0,,,,,0
common_c1,11/28/97,9.9,13.5,0.91,67.81,96,852183,,,,,0,,,,,0
common_c1,11/29/97,0.9,0.3,0.79,2.41,96,75060,,,,,0,,,,,0
common_c1,11/30/97,1,0.5,0.79,2.64,96,89667,,,,,0,,,,,0
common_c1,12/1/97,7.8,8.1,0.79,28.99,96,672849,,,,,0,,,,,0
common_c1,12/2/97,12.5,8.5,2.41,50.65,96,1075698,,,,,0,,,,,0
common_c1,12/3/97,6.4,5.1,0.79,27.25,96,550377,,,,,0,,,,,0
common_c1,12/4/97,1.1,0.8,0.67,4.53,96,93339,,,,,0,,,,,0
common_c1,12/5/97,5,10.5,0.67,81.26,96,428409,,,,,0,,,,,0
common_c1,12/6/97,8.2,6.5,1.81,27.25,96,705447,,,,,0,,,,,0
common_c1,12/7/97,5.9,6.6,0.67,27.25,96,508860,,,,,0,,,,,0
common_c1,12/8/97,0.9,0.6,0.67,2.87,96,80181,,,,,0,,,,,0
common_c1,12/9/97,1.6,1.1,0.67,4.53,96,135297,,,,,0,,,,,0
common_c1,12/10/97,5,5.1,0.79,27.25,96,432729,,,,,0,,,,,0
common_c1,12/11/97,3.9,4.6,0.79,22.48,96,333063,,,,,0,,,,,0
common_c1,12/12/97,1,0.4,0.79,2.87,96,83187,,,,,0,,,,,0
common_c1,12/13/97,0.9,0.1,0.91,1.04,96,81315,,,,,0,,,,,0
common_c1,12/14/97,1,0.1,0.91,1.04,96,82602,,,,,0,,,,,0
common_c1,12/15/97,0.9,0.1,0.79,0.91,96,75492,,,,,0,,,,,0
common_c1,12/16/97,9.7,15.1,0.79,84.89,96,838872,,,,,0,,,,,0
common_c1,12/17/97,6.1,5.7,1.48,27.25,96,529470,,,,,0,,,,,0
common_c1,12/18/97,13.5,13.1,0.91,71.02,96,1166427,,,,,0,,,,,0
common_c1,12/19/97,7,4.7,1.48,21.03,96,600849,,,,,0,,,,,0
common_c1,12/20/97,25.7,23.9,2.41,113.6,96,2216403,,,,,0,,,,,0
common_c1,12/21/97,12.5,13.8,1.32,96.46,96,1080864,,,,,0,,,,,0
common_c1,12/22/97,23.6,23.2,2.87,84.89,96,2038140,,,,,0,,,,,0
common_c1,12/23/97,37.9,37.5,2.87,127.83,96,3276315,,,,,0,,,,,0
common_c1,12/24/97,58.5,44.9,9.97,184.19,96,5052276,,,,,0,,,,,0
common_c1,12/25/97,13.1,4.3,7.2,25.59,96,1131075,,,,,0,,,,,0
common_c1,12/26/97,43.3,43.9,3.38,171.76,96,3743262,,,,,0,,,,,0
common_c1,12/27/97,55.3,42.7,12.64,148.66,96,4774257,,,,,0,,,,,0
common_c1,12/28/97,55.5,35.5,13.66,197.24,95,4747779,,,,,0,,,,,0
common_c1,12/29/97,54.6,32.4,15.87,154.22,96,4720392,,,,,0,,,,,0
common_c1,12/30/97,42.7,36.2,11.67,239.29,95,3654720,,,,,0,,,,,0
common_c1,12/31/97,7.5,7.3,2.19,55.99,96,644418,,,,,0,,,,,0
common_c1,1/1/98,2.2,0.1,2.19,2.41,96,193176,,,,,0,,,,,0
common_c1,1/2/98,28.1,33.9,2.19,104.75,96,2426616,,,,,0,,,,,0
common_c1,1/3/98,5.9,3.3,2.41,15.87,96,508590,,,,,0,,,,,0
common_c1,1/4/98,4.4,4.1,2.41,17.07,96,382410,,,,,0,,,,,0
common_c1,1/5/98,10.4,7,2.64,24,96,896355,,,,,0,,,,,0
common_c1,1/6/98,36.5,39.5,3.94,122.95,96,3152160,,,,,0,,,,,0
common_c1,1/7/98,25.6,26.7,4.23,96.46,96,2207997,,,,,0,,,,,0
common_c1,1/8/98,17.3,11.4,4.23,55.99,96,1493352,,,,,0,,,,,0
common_c1,1/9/98,4.3,1.2,2.41,10.76,96,368550,,,,,0,,,,,0
common_c1,1/10/98,3.6,0.4,2.87,5.5,96,313155,,,,,0,,,,,0
common_c1,1/11/98,16.9,19,3.65,64.71,96,1460232,,,,,0,,,,,0
common_c1,1/12/98,24.7,27.6,3.38,88.63,96,2134764,,,,,0,,,,,0
common_c1,1/13/98,39,42.7,2.87,159.92,96,3368502,,,,,0,,,,,0
common_c1,1/14/98,23.3,24.8,3.12,96.46,96,2017143,,,,,0,,,,,0
common_c1,1/15/98,16,17.6,2.41,64.71,96,1380672,,,,,0,,,,,0
common_c1,1/16/98,26.2,25.5,2.64,77.74,94,2212335,,,,,0,,,,,0
common_c1,1/17/98,7.6,6.4,2.19,28.99,96,654462,,,,,0,,,,,0
common_c1,1/18/98,3.7,3.8,1.64,14.74,96,318483,,,,,0,,,,,0
common_c1,1/19/98,20.6,23,1.32,81.26,96,1781370,,,,,0,,,,,0
common_c1,1/20/98,3,3.3,0.79,15.87,96,259884,,,,,0,,,,,0
common_c1,1/21/98,9.2,13.5,0.57,55.99,96,792981,,,,,0,,,,,0
common_c1,1/22/98,7.4,9.2,0.4,43.32,96,639585,,,,,0,,,,,0
common_c1,1/23/98,13.4,18.2,0.24,74.33,96,1159101,,,,,0,,,,,0
common_c1,1/24/98,2.4,3,0,12.64,96,209196,,,,,0,,,,,0
common_c1,1/25/98,0,0.2,0,0.91,96,2601,,,,,0,,,,,0
common_c1,1/26/98,0,0,0,0,96,0,,,,,0,,,,,0
common_c1,1/27/98,1,1.8,0,6.6,96,87489,,,,,0,,,,,0
common_c1,1/28/98,2.7,4.1,0,15.87,96,236727,,,,,0,,,,,0
common_c1,1/29/98,0,0,0,0.24,96,216,,,,,0,,,,,0
common_c1,1/30/98,0,0,0,0,96,0,,,,,0,,,,,0
common_c1,1/31/98,0,0,0,0,96,0,,,,,0,,,,,0
common_c1,2/1/98,0,0,0,0,96,0,,,,,0,,,,,0
common_c1,2/2/98,0.6,1.4,0,6.6,96,54846,,,,,0,,,,,0
common_c1,2/3/98,0,0.3,0,2.41,96,3861,,,,,0,,,,,0
common_c1,2/4/98,0.8,1.6,0,6.6,96,65943,,,,,0,,,,,0
common_c1,2/5/98,0,0.1,0,0.91,96,1980,,,,,0,,,,,0
common_c1,2/6/98,0.1,0.3,0,1.48,96,7623,,,,,0,,,,,0
common_c1,2/7/98,0.2,0.9,0,7.84,96,19548,,,,,0,,,,,0
common_c1,2/8/98,0,0.1,0,0.49,96,945,,,,,0,,,,,0
common_c1,2/9/98,0,0,0,0,96,0,,,,,0,,,,,0
common_c1,2/10/98,0,0,0,0,96,0,,,,,0,,,,,0
common_c1,2/11/98,0.1,0.2,0,0.91,96,4356,,,,,0,,,,,0
common_c1,2/12/98,59.6,93.7,0,286.06,96,5153499,,,,,0,,,,,0
common_c1,2/13/98,0,0,0,0,96,0,,,,,0,,,,,0
common_c1,2/14/98,0.4,1.8,0,10.76,59,21978,,,,,0,,,,,0
common_c1,12/6/98,0.2,0.1,0,0.37,29,4788,,,,,0,,,,,0
common_c1,12/7/98,1,0.3,0.38,1.98,96,83097,,,,,0,,,,,0
common_c1,12/8/98,0.7,0.6,0.16,2.4,96,63063,,,,,0,,,,,0
common_c1,12/9/98,0.3,0.2,0.16,1.04,96,28521,,,,,0,,,,,0
common_c1,12/10/98,1.6,1.3,0.4,4.22,96,142380,,,,,0,,,,,0
common_c1,12/11/98,5,4.9,1.98,36.7,96,435960,,,,,0,,,,,0
common_c1,12/12/98,2.3,0.5,1.17,3.12,96,195264,,,,,0,,,,,0
common_c1,12/13/98,5.4,3,1.98,14.73,96,463851,,,,,0,,,,,0
common_c1,12/14/98,10.1,9.3,1.32,36.7,96,872847,,,,,0,,,,,0
common_c1,12/15/98,2.3,0.8,1.32,6.03,96,199107,,,,,0,,,,,0
common_c1,12/16/98,1.3,0.1,1.32,2.18,96,115362,,,,,0,,,,,0
common_c1,12/17/98,1.3,0.1,1.17,1.47,96,112428,,,,,0,,,,,0
common_c1,12/18/98,9.1,9.6,1.17,41.04,96,789426,,,,,0,,,,,0
common_c1,12/19/98,17.1,13.8,4.52,61.7,96,1475001,,,,,0,,,,,0
common_c1,12/20/98,28.4,17.2,7.83,96.45,96,2455299,,,,,0,,,,,0
common_c1,12/21/98,13.8,9.6,4.52,43.31,96,1189971,,,,,0,,,,,0
common_c1,12/22/98,16.9,13.6,4.99,53.27,96,1462671,,,,,0,,,,,0
common_c1,12/23/98,32.5,32.2,6.59,154.22,96,2805552,,,,,0,,,,,0
common_c1,12/24/98,38.5,32.2,9.96,122.95,96,3327678,,,,,0,,,,,0
common_c1,12/25/98,72.1,52.3,21.02,177.89,96,6225894,,,,,0,,,,,0
common_c1,12/26/98,64.8,30.7,23.99,122.95,96,5596794,,,,,0,,,,,0
common_c1,12/27/98,53.8,32.1,15.87,171.75,96,4651110,,,,,0,,,,,0
common_c1,12/28/98,56.1,34.2,15.87,118.2,96,4851099,,,,,0,,,,,0
common_c1,12/29/98,45.8,29,14.73,118.2,96,3954492,,,,,0,,,,,0
common_c1,12/30/98,50.2,28.8,15.87,132.83,96,4339881,,,,,0,,,,,0
common_c1,12/31/98,49.5,28.3,19.64,113.59,96,4276836,,,,,0,,,,,0
common_c1,1/1/99,14.3,10.7,4.52,45.67,96,1231560,,,,,0,,,,,0
common_c1,1/2/99,21.1,23.9,2.4,77.74,96,1820826,,,,,0,,,,,0